Content
SEND FEEDBACK

Daily
Averages
Monthly
Summary
Netherlands

ROTTERDAM, NETHERLANDS


Home > Europe > Netherlands
Elevation: 13 feet     Latitude: 51 57N     Longitude: 004 26E

WEATHER
 
SELECT A DAY
Number of Records: 414,488;   Date Range: 7/1/96 - 7/11/14
 
SHARE

PRINT THIS DATA

[ ← Previous Day ]
WEATHER ALMANAC - OCTOBER 1, 2013
[ Next Day → ]
[ °C ]   °F
Weather ElementAverageHighLow
Temperature51.9 °F62.6 °F (3:25 pm)41 °F (8:25 am)
Dewpoint42.9 °F48.2 °F (2:55 pm)38 °F (8:00 am)
Humidity70.8 %93 % (8:25 am)49 % (5:00 pm)
Barometer29.91 in29.98 in (11:00 pm)29.86 in (12:55 am)
Wind Speed10.6 mph13.8 mph (5:25 pm)
Weather ElementAverage
Visibility7.3 mi
Wind DirectionENE (83.8 °)

Weather ElementTotal
Precipitation---
Heating Degree Days13.2 (Base 65)
Growing Degree Days1.8 (Base 50)
Averaged from 55 records on October 1, 2013
WEATHER CONDITIONS BREAKOUT
WIND DIRECTION BREAKOUT
WEATHER BY HOUR - OCTOBER 1, 2013
[ °C ]   °F
Local TimeTemperatureDewpointHumidityBarometerVisibilityWind DirectionWind SpeedGust SpeedPrecipitationEventsConditions
12:55 AM50.0 °F42.8 °F76 %29.86 in6.2 miEast (90°)10.4 mph
1:25 AM48.2 °F42.8 °F82 %29.86 in6.2 miEast (80°)11.5 mph
1:55 AM48.2 °F41.0 °F76 %29.86 in6.2 miEast (90°)9.2 mph
2:00 AM48.0 °F42.0 °F71 %29.89 in12.0 miEast (90°)8.9 mphPartly Cloudy
2:25 AM48.2 °F41.0 °F76 %29.86 in6.2 miEast (90°)9.2 mph
2:55 AM48.2 °F41.0 °F76 %29.89 in6.2 miEast (90°)9.2 mph
3:25 AM46.4 °F41.0 °F81 %29.89 in6.2 miEast (80°)9.2 mph
3:55 AM46.4 °F41.0 °F81 %29.89 in6.2 miEast (90°)9.2 mph
4:25 AM46.4 °F39.2 °F76 %29.89 in6.2 miEast (90°)9.2 mph
4:55 AM44.6 °F39.2 °F81 %29.89 in6.2 miEast (80°)9.2 mph
5:00 AM44.0 °F39.0 °F78 %29.89 in14.0 miEast (80°)8.9 mph
5:25 AM44.6 °F39.2 °F81 %29.89 in6.2 miEast (80°)9.2 mph
5:55 AM44.6 °F39.2 °F81 %29.89 in6.2 miEast (90°)9.2 mph
6:25 AM42.8 °F39.2 °F87 %29.89 in6.2 miEast (80°)11.5 mph
6:55 AM42.8 °F39.2 °F87 %29.89 in6.2 miEast (80°)8.1 mph
7:25 AM42.8 °F39.2 °F87 %29.89 in6.2 miENE (70°)6.9 mph
7:55 AM42.8 °F39.2 °F87 %29.89 in6.2 miEast (80°)6.9 mph
8:00 AM42.0 °F38.0 °F83 %29.92 in13.0 miENE (70°)6.7 mphPartly Cloudy
8:25 AM41.0 °F39.2 °F93 %29.92 in6.2 miENE (60°)4.6 mph
8:55 AM44.6 °F39.2 °F81 %29.92 in6.2 miENE (70°)6.9 mph
9:25 AM44.6 °F41.0 °F87 %29.92 in6.2 miENE (70°)9.2 mph
9:55 AM46.4 °F41.0 °F81 %29.92 in6.2 miEast (80°)8.1 mph
10:25 AM48.2 °F41.0 °F76 %29.92 in6.2 miENE (70°)9.2 mph
10:55 AM50.0 °F42.8 °F76 %29.92 in6.2 miEast (80°)8.1 mph
11:00 AM51.0 °F42.0 °F64 %29.94 in14.0 miEast (90°)8.9 mph
11:25 AM51.8 °F44.6 °F76 %29.92 in6.2 miENE (70°)9.2 mph
11:55 AM53.6 °F44.6 °F72 %29.92 in6.2 miENE (60°)11.5 mph
12:25 PM55.4 °F44.6 °F67 %29.92 in6.2 miEast (80°)11.5 mph
12:55 PM57.2 °F44.6 °F63 %29.92 in6.2 miEast (80°)12.7 mph
1:25 PM57.2 °F44.6 °F63 %29.92 in6.2 miEast (80°)11.5 mph
1:55 PM59.0 °F46.4 °F63 %29.92 in6.2 miEast (90°)12.7 mph
2:00 PM60.0 °F46.0 °F50 %29.93 in15.0 miEast (90°)11.2 mphPartly Cloudy
2:25 PM60.8 °F46.4 °F59 %29.92 in6.2 miEast (80°)12.7 mph
2:55 PM60.8 °F48.2 °F63 %29.92 in6.2 miEast (80°)10.4 mph
3:25 PM62.6 °F48.2 °F59 %29.92 in6.2 miEast (90°)10.4 mph
3:55 PM62.6 °F46.4 °F55 %29.89 in6.2 miEast (90°)11.5 mph
4:25 PM60.8 °F46.4 °F59 %29.89 in6.2 miEast (90°)11.5 mph
4:55 PM60.8 °F46.4 °F59 %29.89 in6.2 miEast (90°)12.7 mph
5:00 PM61.0 °F47.0 °F49 %29.91 in11.0 miEast (80°)13.4 mph
5:25 PM60.8 °F46.4 °F59 %29.89 in6.2 miEast (100°)13.8 mph
5:55 PM60.8 °F46.4 °F59 %29.89 in6.2 miEast (90°)13.8 mph
6:25 PM59.0 °F46.4 °F63 %29.92 in6.2 miEast (90°)12.7 mph
6:55 PM57.2 °F46.4 °F67 %29.92 in6.2 miEast (90°)10.4 mph
7:25 PM57.2 °F44.6 °F63 %29.92 in6.2 miEast (90°)10.4 mph
7:55 PM55.4 °F44.6 °F67 %29.92 in6.2 miEast (80°)11.5 mph
8:00 PM55.0 °F45.0 °F60 %29.94 in13.0 miEast (80°)11.2 mphPartly Cloudy
8:25 PM55.4 °F44.6 °F67 %29.95 in6.2 miEast (80°)12.7 mph
8:55 PM55.4 °F44.6 °F67 %29.95 in6.2 miEast (80°)12.7 mph
9:25 PM53.6 °F44.6 °F72 %29.95 in6.2 miEast (90°)13.8 mph
9:55 PM53.6 °F42.8 °F67 %29.95 in6.2 miEast (90°)13.8 mph
10:25 PM53.6 °F42.8 °F67 %29.95 in6.2 miEast (90°)12.7 mph
10:55 PM53.6 °F41.0 °F62 %29.95 in6.2 miEast (100°)12.7 mph
11:00 PM52.0 °F42.0 °F58 %29.98 in17.0 miEast (100°)13.4 mph
11:25 PM51.8 °F41.0 °F67 %29.98 in6.2 miEast (90°)11.5 mph
11:55 PM51.8 °F41.0 °F67 %29.98 in6.2 miEast (100°)13.8 mph
Hourly data recorded from EHRD, located miles away from Rotterdam, Netherlands







STORIES FROM OUR PARTNERS